map of HND home
Great Circle Mapper logo
HND - Airport
Location
City:  Tokyo, Honshu, Japan
Name:Haneda
ICAO / IATA:RJTT / HND

Details
Type:Airport (Aerodrome, Airfield)
Use:Public/Civil, International (customs port of entry)
Latitude:35°33'12"N (35.553333)
Longitude:139°46'52"E (139.781111)
Elevation:21 ft (6 m)
Variation:7.28°W (WMM2015 magnetic declination)
-0.06° annual change
Runways:4
Longest:9843 × 197 ft (3000 × 60 m), paved

Time
Time Zone:UTC+9
Local Time:

Weather
METAR:RJTT 290549Z 01016KT 5000 -RA BR FEW007 BKN010 BKN015 21/19 Q1006 RMK 1ST007 5ST010 7SC015 A2973 9999NW-N
TAF:RJTT 290505Z 2906/3012 36014KT 6000 -RA FEW008 BKN012
TEMPO 2906/2912 4000 -RA BR FEW005 BKN008
BECMG 3000/3003 16012KT

Related Locations
Nearby:
Farthest:SNPV: 11755 mi / 18917 km
Mostardas [Solidão], RS, BR

Find:

   beyond  
but within

Other Information
Maps:
NOTAMs:
Links:
Sources:

  
flag of Japan
flag of Tokyo
  

Airport Diagram

Airport diagram for HND

Airport diagram (OBSOLETE) from NGA

Sectional Chart

Flight Planning
at skyvector.com

Satellite Image

Google Maps Satellite View

 

Copyright © 2004-2015 Karl L. Swartz. All rights reserved.
The Great Circle Mapper name and logo are trademarks of the Great Circle Mapper.
All other trademarks mentioned herein belong to their respective owners.
Please see credits for attibutions and further copyright information.

  Follow gcmap on Facebook Follow gcmap on Twitter Follow gcmap on Google+

hCard Microformat

Geo Microformat